,,PA_Meas_PMT16A,,PR_Meas_QMR101_102,,RH_Meas_QMH101,,SR_Meas_QMS101,,TA_Meas_QMH101,,GenWind,,GenWind,
time,status,PA,status,PR,status,RH,status,SR,status,TA,status,DirAvg,status,SpdAvg,
2009-10-10, 00:00:04,VALID,919.05,VALID,0,VALID,94.4313,VALID,0,VALID,19.5633,VALID,352,VALID,0,
2009-10-10, 00:01:04,VALID,919.071,VALID,0,VALID,92.3653,VALID,0,VALID,19.5243,VALID,352,VALID,0,
2009-10-10, 00:02:04,VALID,919.037,VALID,0,VALID,93.242,VALID,0,VALID,19.5843,VALID,352,VALID,0,
2009-10-10, 00:03:04,VALID,919.043,VALID,0,VALID,92.9371,VALID,0,VALID,19.5648,VALID,352,VALID,0,
2009-10-10, 00:04:04,VALID,919.085,VALID,0,VALID,93.1963,VALID,0,VALID,19.5438,VALID,352,VALID,0,
2009-10-10, 00:05:04,VALID,919.068,VALID,0,VALID,92.4644,VALID,0,VALID,19.5063,VALID,352,VALID,0,
2009-10-10, 00:06:04,VALID,919.101,VALID,0,VALID,93.0514,VALID,0,VALID,19.5648,VALID,352,VALID,0,
2009-10-10, 00:07:04,VALID,919.109,VALID,0,VALID,93.4707,VALID,0,VALID,19.6038,VALID,352,VALID,0,
2009-10-10, 00:08:04,VALID,919.118,VALID,0,VALID,93.6842,VALID,0,VALID,19.6233,VALID,352,VALID,0.150781,
2009-10-10, 00:09:04,VALID,919.1,VALID,0,VALID,94.0272,VALID,0,VALID,19.6428,VALID,352,VALID,0,
2009-10-10, 00:10:04,VALID,919.112,VALID,0,VALID,92.8608,VALID,0,VALID,19.6038,VALID,352,VALID,0.00429688,
2009-10-10, 00:11:04,VALID,919.14,VALID,0,VALID,92.9523,VALID,0,VALID,19.6428,VALID,352,VALID,0.145703,
2009-10-10, 00:12:04,VALID,919.121,VALID,0,VALID,93.5546,VALID,0,VALID,19.6818,VALID,352,VALID,0.26875,
2009-10-10, 00:13:04,VALID,919.122,VALID,0,VALID,93.6308,VALID,0,VALID,19.7208,VALID,352,VALID,0,
2009-10-10, 00:14:04,VALID,919.107,VALID,0,VALID,94.0806,VALID,0,VALID,19.7598,VALID,352,VALID,0,
2009-10-10, 00:15:04,VALID,919.096,VALID,0,VALID,93.5469,VALID,0,VALID,19.7598,VALID,352,VALID,0,
2009-10-10, 00:16:04,VALID,919.097,VALID,0,VALID,92.9828,VALID,0,VALID,19.7403,VALID,352,VALID,0,
2009-10-10, 00:17:04,VALID,919.14,VALID,0,VALID,92.5406,VALID,0,VALID,19.7013,VALID,352,VALID,0,
2009-10-10, 00:18:04,VALID,919.094,VALID,0,VALID,92.6474,VALID,0,VALID,19.6218,VALID,352,VALID,0,
2009-10-10, 00:19:04,VALID,919.116,VALID,0,VALID,93.4859,VALID,0,VALID,19.6038,VALID,352,VALID,0,
2009-10-10, 00:20:04,VALID,919.078,VALID,0,VALID,93.4478,VALID,0,VALID,19.5843,VALID,352,VALID,0,
2009-10-10, 00:21:04,VALID,919.061,VALID,0,VALID,92.1366,VALID,0,VALID,19.5258,VALID,352,VALID,0,
2009-10-10, 00:22:04,VALID,919.089,VALID,0,VALID,91.5039,VALID,0,VALID,19.5048,VALID,352,VALID,0,
2009-10-10, 00:23:04,VALID,919.074,VALID,0,VALID,92.3119,VALID,0,VALID,19.5453,VALID,352,VALID,0,
2009-10-10, 00:24:04,VALID,919.059,VALID,0,VALID,91.6792,VALID,0,VALID,19.5438,VALID,352,VALID,0,
2009-10-10, 00:25:04,VALID,919.043,VALID,0,VALID,90.6958,VALID,0,VALID,19.5648,VALID,352,VALID,0,
2009-10-10, 00:26:04,VALID,919.039,VALID,0,VALID,92.8837,VALID,0,VALID,19.6233,VALID,352,VALID,0,
2009-10-10, 00:27:04,VALID,919.023,VALID,0,VALID,93.4326,VALID,0,VALID,19.7013,VALID,352,VALID,0,
2009-10-10, 00:28:04,VALID,919.004,VALID,0,VALID,93.707,VALID,0,VALID,19.7598,VALID,352,VALID,0,
2009-10-10, 00:29:04,VALID,918.973,VALID,0,VALID,93.3487,VALID,0,VALID,19.7988,VALID,352,VALID,0,
2009-10-10, 00:30:04,VALID,918.956,VALID,0,VALID,92.6321,VALID,0,VALID,19.7988,VALID,352,VALID,0.167578,
2009-10-10, 00:31:04,VALID,918.959,VALID,0,VALID,93.6384,VALID,0,VALID,19.8378,VALID,352,VALID,0.571875,
2009-10-10, 00:32:04,VALID,918.922,VALID,0,VALID,93.6994,VALID,0,VALID,19.8363,VALID,352,VALID,0.298438,
2009-10-10, 00:33:04,VALID,918.939,VALID,0,VALID,93.6842,VALID,0,VALID,19.8168,VALID,352,VALID,0.148828,
2009-10-10, 00:34:04,VALID,918.893,VALID,0,VALID,93.7604,VALID,0,VALID,19.8378,VALID,352,VALID,0,
2009-10-10, 00:35:04,VALID,918.855,VALID,0,VALID,93.6842,VALID,0,VALID,19.7973,VALID,352,VALID,0,
2009-10-10, 00:36:04,VALID,918.883,VALID,0,VALID,93.5012,VALID,0,VALID,19.8378,VALID,352,VALID,0,
2009-10-10, 00:37:04,VALID,918.864,VALID,0,VALID,93.0972,VALID,0,VALID,19.7988,VALID,352,VALID,0.318359,
2009-10-10, 00:38:04,VALID,918.832,VALID,0,VALID,92.6626,VALID,0,VALID,19.7988,VALID,352,VALID,0.0535156,
2009-10-10, 00:39:04,VALID,918.816,VALID,0,VALID,92.5635,VALID,0,VALID,19.7988,VALID,352,VALID,0,
2009-10-10, 00:40:04,VALID,918.84,VALID,0,VALID,92.533,VALID,0,VALID,19.7403,VALID,352,VALID,0,
2009-10-10, 00:41:04,VALID,918.846,VALID,0,VALID,93.0819,VALID,0,VALID,19.7403,VALID,352,VALID,0,
2009-10-10, 00:42:04,VALID,918.806,VALID,0,VALID,93.1124,VALID,0,VALID,19.6998,VALID,352,VALID,0,
2009-10-10, 00:43:04,VALID,918.812,VALID,0,VALID,92.5102,VALID,0,VALID,19.6818,VALID,352,VALID,0,
2009-10-10, 00:44:04,VALID,918.82,VALID,0,VALID,93.3411,VALID,0,VALID,19.6623,VALID,352,VALID,0,
2009-10-10, 00:45:04,VALID,918.772,VALID,0,VALID,93.8138,VALID,0,VALID,19.6428,VALID,352,VALID,0,
2009-10-10, 00:46:04,VALID,918.793,VALID,0,VALID,92.8989,VALID,0,VALID,19.5648,VALID,352,VALID,0.158984,
2009-10-10, 00:47:04,VALID,918.778,VALID,0,VALID,93.8595,VALID,0,VALID,19.5843,VALID,352,VALID,0.01875,
2009-10-10, 00:48:04,VALID,918.758,VALID,0,VALID,94.0958,VALID,0,VALID,19.5648,VALID,352,VALID,0,
2009-10-10, 00:49:04,VALID,918.754,VALID,0,VALID,93.8366,VALID,0,VALID,19.5258,VALID,352,VALID,0.335156,
2009-10-10, 00:50:04,VALID,918.715,VALID,0,VALID,93.7985,VALID,0,VALID,19.4868,VALID,352,VALID,0.352734,
2009-10-10, 00:51:04,VALID,918.671,VALID,0,VALID,94.5609,VALID,0,VALID,19.4868,VALID,352,VALID,0.433203,
2009-10-10, 00:52:04,VALID,918.677,VALID,0,VALID,94.5609,VALID,0,VALID,19.4478,VALID,352,VALID,0.26875,
2009-10-10, 00:53:04,VALID,918.676,VALID,0,VALID,94.6066,VALID,0,VALID,19.4268,VALID,352,VALID,0.130078,
2009-10-10, 00:54:04,VALID,918.706,VALID,0,VALID,94.8505,VALID,0.107441,VALID,19.4463,VALID,352,VALID,0.05625,
2009-10-10, 00:55:04,VALID,918.676,VALID,0,VALID,95.1326,VALID,0,VALID,19.4658,VALID,352,VALID,0,
2009-10-10, 00:56:04,VALID,918.677,VALID,0,VALID,94.9725,VALID,0,VALID,19.4463,VALID,352,VALID,0.0210938,
2009-10-10, 00:57:04,VALID,918.645,VALID,0,VALID,95.0945,VALID,0,VALID,19.4268,VALID,352,VALID,0.345703,
2009-10-10, 00:58:04,VALID,918.602,VALID,0,VALID,95.1631,VALID,0.107441,VALID,19.4268,VALID,352,VALID,0.414063,
2009-10-10, 00:59:04,VALID,918.616,VALID,0,VALID,95.1936,VALID,0,VALID,19.4074,VALID,352,VALID,0.428516,
2009-10-10, 01:00:04,VALID,918.608,VALID,0,VALID,95.3766,VALID,0,VALID,19.4268,VALID,352,VALID,0.284766,
2009-10-10, 01:01:04,VALID,918.619,VALID,0,VALID,95.6586,VALID,0.107441,VALID,19.4658,VALID,352,VALID,0.308203,
2009-10-10, 01:02:04,VALID,918.635,VALID,0,VALID,95.4375,VALID,0.107441,VALID,19.4463,VALID,352,VALID,0.000390625,
2009-10-10, 01:03:04,VALID,918.612,VALID,0,VALID,94.7591,VALID,0,VALID,19.3879,VALID,352,VALID,0.643359,
2009-10-10, 01:04:04,VALID,918.575,VALID,0,VALID,94.5075,VALID,0.107441,VALID,19.3489,VALID,352,VALID,0.602734,
2009-10-10, 01:05:04,VALID,918.561,VALID,0,VALID,94.7972,VALID,0.107441,VALID,19.2904,VALID,352,VALID,0.740625,
2009-10-10, 01:06:04,VALID,918.531,VALID,0,VALID,95.4757,VALID,0.107441,VALID,19.2904,VALID,352,VALID,0.858203,
2009-10-10, 01:07:04,VALID,918.496,VALID,0,VALID,95.2927,VALID,0,VALID,19.2514,VALID,352,VALID,0.838672,
2009-10-10, 01:08:04,VALID,918.533,VALID,0,VALID,95.4071,VALID,0,VALID,19.2514,VALID,352,VALID,0.654688,
2009-10-10, 01:09:04,VALID,918.504,VALID,0,VALID,95.4909,VALID,0.107441,VALID,19.2304,VALID,352,VALID,0.618359,
2009-10-10, 01:10:04,VALID,918.512,VALID,0,VALID,95.6129,VALID,0,VALID,19.2319,VALID,352,VALID,0.730078,
2009-10-10, 01:11:04,VALID,918.469,VALID,0,VALID,95.3308,VALID,0.107441,VALID,19.2124,VALID,352,VALID,0.719922,
2009-10-10, 01:12:04,VALID,918.452,VALID,0,VALID,95.3613,VALID,0,VALID,19.1929,VALID,352,VALID,0.56875,
2009-10-10, 01:13:04,VALID,918.474,VALID,0,VALID,94.8048,VALID,0,VALID,19.1344,VALID,352,VALID,0.638672,
2009-10-10, 01:14:04,VALID,918.433,VALID,0,VALID,94.9115,VALID,0,VALID,19.0954,VALID,352,VALID,0.714453,
2009-10-10, 01:15:04,VALID,918.411,VALID,0,VALID,95.2088,VALID,0.107441,VALID,19.0564,VALID,352,VALID,0.682813,
2009-10-10, 01:16:04,VALID,918.371,VALID,0,VALID,95.9026,VALID,0,VALID,19.0759,VALID,352,VALID,0.677734,
2009-10-10, 01:17:04,VALID,918.373,VALID,0,VALID,95.8492,VALID,0,VALID,19.1164,VALID,352,VALID,0.756641,
2009-10-10, 01:18:04,VALID,918.342,VALID,0,VALID,95.1326,VALID,0,VALID,19.0369,VALID,352,VALID,0.857813,
2009-10-10, 01:19:04,VALID,918.344,VALID,0,VALID,95.1174,VALID,0,VALID,18.9575,VALID,352,VALID,1.03711,
2009-10-10, 01:20:04,VALID,918.325,VALID,0,VALID,95.9407,VALID,0.107441,VALID,19.0564,VALID,352,VALID,0.703906,
2009-10-10, 01:21:04,VALID,918.331,VALID,0,VALID,95.9788,VALID,0.107441,VALID,19.1149,VALID,352,VALID,0.508984,
2009-10-10, 01:22:04,VALID,918.334,VALID,0,VALID,95.8492,VALID,0,VALID,19.1344,VALID,352,VALID,0.501172,
2009-10-10, 01:23:04,VALID,918.29,VALID,0,VALID,95.6357,VALID,0,VALID,19.1929,VALID,352,VALID,0.485547,
2009-10-10, 01:24:04,VALID,918.324,VALID,0,VALID,95.3918,VALID,0,VALID,19.2124,VALID,352,VALID,0.439844,
2009-10-10, 01:25:04,VALID,918.301,VALID,0,VALID,95.3156,VALID,0,VALID,19.2709,VALID,352,VALID,0.299609,
2009-10-10, 01:26:04,VALID,918.292,VALID,0,VALID,94.7514,VALID,0,VALID,19.2319,VALID,352,VALID,0.649609,
2009-10-10, 01:27:04,VALID,918.276,VALID,0,VALID,95.2546,VALID,0,VALID,19.2709,VALID,352,VALID,1.13789,
2009-10-10, 01:28:04,VALID,918.278,VALID,0,VALID,95.3766,VALID,0,VALID,19.2904,VALID,352,VALID,0.588281,
2009-10-10, 01:29:04,VALID,918.28,VALID,0,VALID,95.0792,VALID,0,VALID,19.3294,VALID,352,VALID,0.710938,
2009-10-10, 01:30:04,VALID,918.254,VALID,0,VALID,94.9496,VALID,0,VALID,19.3099,VALID,352,VALID,0.616797,
2009-10-10, 01:31:04,VALID,918.266,VALID,0,VALID,94.6142,VALID,0.107441,VALID,19.2904,VALID,352,VALID,0.655469,
2009-10-10, 01:32:04,VALID,918.255,VALID,0,VALID,94.6447,VALID,0.107441,VALID,19.2694,VALID,352,VALID,0.449219,
2009-10-10, 01:33:04,VALID,918.291,VALID,0,VALID,94.6752,VALID,0,VALID,19.2514,VALID,352,VALID,0.477344,
2009-10-10, 01:34:04,VALID,918.314,VALID,0,VALID,94.8429,VALID,0.107441,VALID,19.2514,VALID,352,VALID,0.324219,
2009-10-10, 01:35:04,VALID,918.281,VALID,0,VALID,94.7514,VALID,0.107441,VALID,19.2109,VALID,352,VALID,0,
2009-10-10, 01:36:04,VALID,918.276,VALID,0,VALID,94.4541,VALID,0.107441,VALID,19.2514,VALID,352,VALID,0,
2009-10-10, 01:37:04,VALID,918.247,VALID,0,VALID,93.9052,VALID,0.107441,VALID,19.2319,VALID,352,VALID,0.2875,
2009-10-10, 01:38:04,VALID,918.212,VALID,0,VALID,93.7223,VALID,0,VALID,19.2139,VALID,352,VALID,0.409766,
2009-10-10, 01:39:04,VALID,918.227,VALID,0,VALID,92.411,VALID,0,VALID,19.1359,VALID,352,VALID,0.205078,
2009-10-10, 01:40:04,VALID,918.233,VALID,0,VALID,93.3792,VALID,0,VALID,19.1373,VALID,352,VALID,0.386328,
2009-10-10, 01:41:04,VALID,918.224,VALID,0,VALID,93.6918,VALID,0,VALID,19.0593,VALID,352,VALID,0.501172,
2009-10-10, 01:42:04,VALID,918.225,VALID,0,VALID,93.5012,VALID,0,VALID,18.9799,VALID,352,VALID,0.275391,
2009-10-10, 01:43:04,VALID,918.228,VALID,0,VALID,93.89,VALID,0,VALID,18.9409,VALID,352,VALID,0.204297,
2009-10-10, 01:44:04,VALID,918.221,VALID,0,VALID,93.9967,VALID,0,VALID,18.9019,VALID,352,VALID,0.0871094,
2009-10-10, 01:45:04,VALID,918.23,VALID,0,VALID,94.2559,VALID,0,VALID,18.8449,VALID,352,VALID,0.173047,
2009-10-10, 01:46:04,VALID,918.215,VALID,0,VALID,94.599,VALID,0,VALID,18.8045,VALID,352,VALID,0,
2009-10-10, 01:47:04,VALID,918.183,VALID,0,VALID,95.1479,VALID,0,VALID,18.7655,VALID,352,VALID,0,
2009-10-10, 01:48:04,VALID,918.182,VALID,0,VALID,95.4833,VALID,0,VALID,18.7655,VALID,352,VALID,0,
2009-10-10, 01:49:04,VALID,918.203,VALID,0,VALID,95.5595,VALID,0,VALID,18.785,VALID,352,VALID,0,
2009-10-10, 01:50:04,VALID,918.158,VALID,0,VALID,95.712,VALID,0,VALID,18.7655,VALID,352,VALID,0,
2009-10-10, 01:51:04,VALID,918.148,VALID,0,VALID,94.6371,VALID,0,VALID,18.7084,VALID,352,VALID,0.0175781,
2009-10-10, 01:52:05,VALID,918.123,VALID,0,VALID,95.5443,VALID,0,VALID,18.7655,VALID,352,VALID,0.358203,
2009-10-10, 01:53:05,VALID,918.104,VALID,0,VALID,95.9254,VALID,0.107441,VALID,18.8615,VALID,352,VALID,0,
2009-10-10, 01:54:05,VALID,918.142,VALID,0,VALID,95.9026,VALID,0,VALID,18.881,VALID,352,VALID,0.000390625,
2009-10-10, 01:55:05,VALID,918.134,VALID,0,VALID,95.0106,VALID,0.107441,VALID,18.8615,VALID,352,VALID,0.332422,
2009-10-10, 01:56:05,VALID,918.088,VALID,0,VALID,95.4452,VALID,0.107441,VALID,18.9785,VALID,352,VALID,0.144141,
2009-10-10, 01:57:05,VALID,918.073,VALID,0,VALID,95.4833,VALID,0,VALID,19.0369,VALID,352,VALID,0,
2009-10-10, 01:58:05,VALID,918.072,VALID,0,VALID,94.1339,VALID,0,VALID,18.9799,VALID,352,VALID,0.342969,
2009-10-10, 01:59:05,VALID,918.059,VALID,0,VALID,94.6905,VALID,0,VALID,19.0175,VALID,352,VALID,0.237891,
2009-10-10, 02:00:05,VALID,918.053,VALID,0,VALID,94.233,VALID,0,VALID,18.9994,VALID,352,VALID,0.380469,
2009-10-10, 02:01:05,VALID,918.051,VALID,0,VALID,94.66,VALID,0,VALID,19.0384,VALID,352,VALID,0.225781,
2009-10-10, 02:02:05,VALID,918.049,VALID,0,VALID,95.2317,VALID,0,VALID,19.0969,VALID,352,VALID,0.00585938,
2009-10-10, 02:03:05,VALID,918.023,VALID,0,VALID,95.6739,VALID,0,VALID,19.1149,VALID,352,VALID,0.430078,
2009-10-10, 02:04:05,VALID,917.965,VALID,0,VALID,95.4299,VALID,0.107441,VALID,19.1149,VALID,352,VALID,0.53125,
2009-10-10, 02:05:05,VALID,917.956,VALID,0,VALID,94.073,VALID,0,VALID,19.0384,VALID,352,VALID,0.555469,
2009-10-10, 02:06:05,VALID,917.98,VALID,0,VALID,92.9371,VALID,0,VALID,18.9409,VALID,352,VALID,0.395703,
2009-10-10, 02:07:05,VALID,917.969,VALID,0,VALID,94.0043,VALID,0,VALID,18.8615,VALID,352,VALID,0.417969,
2009-10-10, 02:08:05,VALID,917.952,VALID,0,VALID,95.0564,VALID,0,VALID,18.8434,VALID,352,VALID,0.768359,
2009-10-10, 02:09:05,VALID,917.955,VALID,0,VALID,95.247,VALID,0,VALID,18.842,VALID,352,VALID,0.456641,
2009-10-10, 02:10:05,VALID,917.957,VALID,0,VALID,95.0564,VALID,0,VALID,18.8225,VALID,352,VALID,0.402344,
2009-10-10, 02:11:05,VALID,917.976,VALID,0,VALID,94.5456,VALID,0,VALID,18.803,VALID,352,VALID,0.455469,
2009-10-10, 02:12:05,VALID,918.011,VALID,0,VALID,94.7133,VALID,0.107441,VALID,18.803,VALID,352,VALID,0.365625,
2009-10-10, 02:13:05,VALID,917.972,VALID,0,VALID,94.4999,VALID,0.107441,VALID,18.8045,VALID,352,VALID,0.367969,
2009-10-10, 02:14:05,VALID,917.985,VALID,0,VALID,94.1187,VALID,0.107441,VALID,18.7446,VALID,352,VALID,0.45,
2009-10-10, 02:15:05,VALID,917.959,VALID,0,VALID,94.6371,VALID,0.107441,VALID,18.7655,VALID,352,VALID,0.555078,
2009-10-10, 02:16:05,VALID,917.985,VALID,0,VALID,94.8048,VALID,0,VALID,18.785,VALID,352,VALID,0.45,
2009-10-10, 02:17:05,VALID,917.987,VALID,0,VALID,94.8048,VALID,0.107441,VALID,18.785,VALID,352,VALID,0.383594,
2009-10-10, 02:18:05,VALID,917.978,VALID,0,VALID,94.8277,VALID,0.107441,VALID,18.764,VALID,352,VALID,0.439063,
2009-10-10, 02:19:05,VALID,917.971,VALID,0,VALID,94.4389,VALID,0,VALID,18.8045,VALID,352,VALID,0.371484,
2009-10-10, 02:20:05,VALID,917.992,VALID,0,VALID,94.294,VALID,0.107441,VALID,18.7835,VALID,352,VALID,0.24375,
2009-10-10, 02:21:05,VALID,917.967,VALID,0,VALID,94.5685,VALID,0,VALID,18.803,VALID,352,VALID,0.401563,
2009-10-10, 02:22:05,VALID,917.94,VALID,0,VALID,94.0425,VALID,0,VALID,18.785,VALID,352,VALID,0.291016,
2009-10-10, 02:23:05,VALID,917.944,VALID,0,VALID,94.5609,VALID,0.107441,VALID,18.8045,VALID,352,VALID,0.322266,
2009-10-10, 02:24:05,VALID,917.928,VALID,0,VALID,94.9725,VALID,0,VALID,18.824,VALID,352,VALID,0.489453,
2009-10-10, 02:25:05,VALID,917.911,VALID,0,VALID,94.9573,VALID,0,VALID,18.8434,VALID,352,VALID,0.244141,
2009-10-10, 02:26:05,VALID,917.904,VALID,0,VALID,94.8505,VALID,0,VALID,18.8824,VALID,352,VALID,0.298047,
2009-10-10, 02:27:05,VALID,917.911,VALID,0,VALID,94.7743,VALID,0,VALID,18.9019,VALID,352,VALID,0.312891,
2009-10-10, 02:28:05,VALID,917.91,VALID,0,VALID,94.6371,VALID,0,VALID,18.9409,VALID,352,VALID,0.39375,
2009-10-10, 02:29:05,VALID,917.924,VALID,0,VALID,94.2407,VALID,0,VALID,18.9604,VALID,352,VALID,0.376953,
2009-10-10, 02:30:05,VALID,917.882,VALID,0,VALID,93.3945,VALID,0.107441,VALID,18.959,VALID,352,VALID,0.334375,
2009-10-10, 02:31:05,VALID,917.899,VALID,0,VALID,93.5164,VALID,0.107441,VALID,18.959,VALID,352,VALID,0.255078,
2009-10-10, 02:32:05,VALID,917.906,VALID,0,VALID,93.6079,VALID,0,VALID,18.9604,VALID,352,VALID,0.168359,
2009-10-10, 02:33:05,VALID,917.884,VALID,0,VALID,93.6384,VALID,0,VALID,18.959,VALID,352,VALID,0,
2009-10-10, 02:34:05,VALID,917.882,VALID,0,VALID,94.0272,VALID,0.107441,VALID,18.9799,VALID,352,VALID,0,
2009-10-10, 02:35:05,VALID,917.883,VALID,0,VALID,94.1721,VALID,0,VALID,18.9785,VALID,352,VALID,0.174609,
2009-10-10, 02:36:05,VALID,917.879,VALID,0,VALID,93.8366,VALID,0,VALID,18.9994,VALID,352,VALID,0.185156,
2009-10-10, 02:37:05,VALID,917.897,VALID,0,VALID,94.0196,VALID,0,VALID,18.9785,VALID,352,VALID,0.340234,
2009-10-10, 02:38:05,VALID,917.909,VALID,0,VALID,93.9891,VALID,0,VALID,18.9799,VALID,352,VALID,0.333594,
2009-10-10, 02:39:05,VALID,917.874,VALID,0,VALID,94.0806,VALID,0,VALID,18.9395,VALID,352,VALID,0.3,
2009-10-10, 02:40:05,VALID,917.875,VALID,0,VALID,94.355,VALID,0,VALID,18.9409,VALID,352,VALID,0.440625,
2009-10-10, 02:41:05,VALID,917.856,VALID,0,VALID,94.5456,VALID,0,VALID,18.9409,VALID,352,VALID,0.445313,
2009-10-10, 02:42:05,VALID,917.851,VALID,0,VALID,94.8277,VALID,0,VALID,18.9409,VALID,352,VALID,0.456641,
2009-10-10, 02:43:05,VALID,917.84,VALID,0,VALID,94.7743,VALID,0,VALID,18.9409,VALID,352,VALID,0.330469,
2009-10-10, 02:44:05,VALID,917.851,VALID,0,VALID,94.8963,VALID,0,VALID,18.9799,VALID,352,VALID,0.262109,
2009-10-10, 02:45:05,VALID,917.872,VALID,0,VALID,94.4541,VALID,0,VALID,18.9604,VALID,352,VALID,0.182422,
2009-10-10, 02:46:05,VALID,917.903,VALID,0,VALID,93.9052,VALID,0,VALID,18.9604,VALID,352,VALID,0,
2009-10-10, 02:47:05,VALID,917.886,VALID,0,VALID,93.303,VALID,0,VALID,18.9214,VALID,352,VALID,0,
2009-10-10, 02:48:05,VALID,917.887,VALID,0,VALID,93.7299,VALID,0,VALID,18.9409,VALID,352,VALID,0,
2009-10-10, 02:49:05,VALID,917.857,VALID,0,VALID,94.4008,VALID,0,VALID,18.9604,VALID,352,VALID,0,
2009-10-10, 02:50:05,VALID,917.868,VALID,0,VALID,94.4008,VALID,0,VALID,18.9409,VALID,352,VALID,0.175781,
2009-10-10, 02:51:05,VALID,917.863,VALID,0,VALID,94.7514,VALID,0,VALID,18.9604,VALID,352,VALID,0.191797,
2009-10-10, 02:52:05,VALID,917.874,VALID,0,VALID,94.4846,VALID,0,VALID,18.9604,VALID,352,VALID,0,
2009-10-10, 02:53:05,VALID,917.894,VALID,0,VALID,93.6537,VALID,0,VALID,18.9214,VALID,352,VALID,0,
2009-10-10, 02:54:05,VALID,917.887,VALID,0,VALID,94.3779,VALID,0,VALID,18.9409,VALID,352,VALID,0,
2009-10-10, 02:55:05,VALID,917.909,VALID,0,VALID,94.4617,VALID,0,VALID,18.9604,VALID,352,VALID,0,
2009-10-10, 02:56:05,VALID,917.89,VALID,0,VALID,94.4389,VALID,0,VALID,18.9799,VALID,352,VALID,0,
2009-10-10, 02:57:05,VALID,917.919,VALID,0,VALID,94.3931,VALID,0,VALID,18.9799,VALID,352,VALID,0,
2009-10-10, 02:58:05,VALID,917.923,VALID,0,VALID,93.0514,VALID,0,VALID,18.9409,VALID,352,VALID,0,
2009-10-10, 02:59:05,VALID,917.898,VALID,0,VALID,93.6384,VALID,0,VALID,18.9994,VALID,352,VALID,0,
2009-10-10, 03:00:05,VALID,917.888,VALID,0,VALID,93.6537,VALID,0,VALID,18.9799,VALID,352,VALID,0,
2009-10-10, 03:01:05,VALID,917.89,VALID,0,VALID,93.7375,VALID,0,VALID,19.0189,VALID,352,VALID,0,
2009-10-10, 03:02:05,VALID,917.874,VALID,0,VALID,93.6689,VALID,0,VALID,19.0384,VALID,352,VALID,0,
2009-10-10, 03:03:05,VALID,917.907,VALID,0,VALID,92.7007,VALID,0,VALID,18.9994,VALID,352,VALID,0,
2009-10-10, 03:04:05,VALID,917.913,VALID,0,VALID,92.0909,VALID,0,VALID,18.9395,VALID,352,VALID,0,
2009-10-10, 03:05:05,VALID,917.897,VALID,0,VALID,93.1276,VALID,0,VALID,18.9409,VALID,352,VALID,0,
2009-10-10, 03:06:05,VALID,917.921,VALID,0,VALID,93.5774,VALID,0,VALID,18.9604,VALID,352,VALID,0,
2009-10-10, 03:07:05,VALID,917.941,VALID,0,VALID,93.4326,VALID,0,VALID,18.9409,VALID,352,VALID,0,
2009-10-10, 03:08:05,VALID,917.951,VALID,0,VALID,93.4936,VALID,0,VALID,18.9424,VALID,352,VALID,0.187109,
2009-10-10, 03:09:05,VALID,917.93,VALID,0,VALID,93.8671,VALID,0,VALID,18.9019,VALID,352,VALID,0,
2009-10-10, 03:10:05,VALID,917.914,VALID,0,VALID,92.7998,VALID,0,VALID,18.8629,VALID,352,VALID,0,
2009-10-10, 03:11:05,VALID,917.938,VALID,0,VALID,92.4187,VALID,0,VALID,18.8629,VALID,352,VALID,0,
2009-10-10, 03:12:05,VALID,917.933,VALID,0,VALID,92.3196,VALID,0,VALID,18.824,VALID,352,VALID,0.145313,
2009-10-10, 03:13:05,VALID,917.924,VALID,0,VALID,93.2268,VALID,0,VALID,18.824,VALID,352,VALID,0.119531,
2009-10-10, 03:14:05,VALID,917.922,VALID,0,VALID,93.5012,VALID,0,VALID,18.8434,VALID,352,VALID,0.414063,
2009-10-10, 03:15:05,VALID,917.911,VALID,0,VALID,92.6626,VALID,0,VALID,18.8434,VALID,352,VALID,0.467187,
2009-10-10, 03:16:05,VALID,917.893,VALID,0,VALID,92.533,VALID,0,VALID,18.8629,VALID,352,VALID,0.192969,
2009-10-10, 03:17:05,VALID,917.936,VALID,0,VALID,92.6169,VALID,0,VALID,18.8629,VALID,352,VALID,0.375,
2009-10-10, 03:18:05,VALID,917.914,VALID,0,VALID,92.7389,VALID,0,VALID,18.8434,VALID,352,VALID,0,
2009-10-10, 03:19:05,VALID,917.902,VALID,0,VALID,93.3259,VALID,0,VALID,18.824,VALID,352,VALID,0,
2009-10-10, 03:20:05,VALID,917.933,VALID,0,VALID,92.9828,VALID,0,VALID,18.764,VALID,352,VALID,0,
2009-10-10, 03:21:05,VALID,917.943,VALID,0,VALID,93.2344,VALID,0,VALID,18.785,VALID,352,VALID,0,
2009-10-10, 03:22:05,VALID,917.985,VALID,0,VALID,93.3868,VALID,0,VALID,18.7655,VALID,352,VALID,0,
2009-10-10, 03:23:05,VALID,917.99,VALID,0,VALID,93.2268,VALID,0,VALID,18.746,VALID,352,VALID,0,
2009-10-10, 03:24:05,VALID,917.996,VALID,0,VALID,93.829,VALID,0,VALID,18.7655,VALID,352,VALID,0,
2009-10-10, 03:25:05,VALID,917.985,VALID,0,VALID,93.8061,VALID,0,VALID,18.7655,VALID,352,VALID,0.203516,
2009-10-10, 03:26:05,VALID,917.993,VALID,0,VALID,92.9904,VALID,0,VALID,18.746,VALID,352,VALID,0.386328,
2009-10-10, 03:27:05,VALID,917.971,VALID,0,VALID,93.5851,VALID,0,VALID,18.7251,VALID,352,VALID,0.315625,
2009-10-10, 03:28:05,VALID,917.958,VALID,0,VALID,93.7909,VALID,0,VALID,18.707,VALID,352,VALID,0.162109,
2009-10-10, 03:29:05,VALID,917.973,VALID,0,VALID,93.6765,VALID,0,VALID,18.6875,VALID,352,VALID,0.204297,
2009-10-10, 03:30:05,VALID,917.998,VALID,0,VALID,93.9434,VALID,0,VALID,18.6485,VALID,352,VALID,0.146484,
2009-10-10, 03:31:05,VALID,917.985,VALID,0,VALID,93.768,VALID,0,VALID,18.59,VALID,352,VALID,0,
2009-10-10, 03:32:05,VALID,917.972,VALID,0,VALID,93.7528,VALID,0,VALID,18.5705,VALID,352,VALID,0,
2009-10-10, 03:33:05,VALID,917.958,VALID,0,VALID,93.6384,VALID,0,VALID,18.5511,VALID,352,VALID,0,
2009-10-10, 03:34:05,VALID,918.011,VALID,0,VALID,93.3335,VALID,0,VALID,18.4926,VALID,352,VALID,0,
2009-10-10, 03:35:05,VALID,918.004,VALID,0,VALID,93.5622,VALID,0,VALID,18.4522,VALID,352,VALID,0,
2009-10-10, 03:36:05,VALID,917.993,VALID,0,VALID,94.4617,VALID,0.107441,VALID,18.4926,VALID,352,VALID,0.262109,
2009-10-10, 03:37:05,VALID,918.014,VALID,0,VALID,94.2788,VALID,0,VALID,18.4926,VALID,352,VALID,0.494531,
2009-10-10, 03:38:05,VALID,918.004,VALID,0,VALID,94.5837,VALID,0,VALID,18.5121,VALID,352,VALID,0.324609,
2009-10-10, 03:39:05,VALID,918.015,VALID,0,VALID,94.82,VALID,0,VALID,18.5316,VALID,352,VALID,0.414063,
2009-10-10, 03:40:05,VALID,917.976,VALID,0,VALID,93.3716,VALID,0,VALID,18.4926,VALID,352,VALID,0.200391,
2009-10-10, 03:41:05,VALID,917.992,VALID,0,VALID,93.951,VALID,0,VALID,18.5316,VALID,352,VALID,0.269922,
2009-10-10, 03:42:05,VALID,917.992,VALID,0,VALID,92.7693,VALID,0,VALID,18.5121,VALID,352,VALID,0.216016,
2009-10-10, 03:43:05,VALID,917.989,VALID,0,VALID,94.0272,VALID,0.107441,VALID,18.5511,VALID,352,VALID,0.771875,
2009-10-10, 03:44:05,VALID,917.964,VALID,0,VALID,94.5837,VALID,0,VALID,18.629,VALID,352,VALID,0.239844,
2009-10-10, 03:45:05,VALID,917.998,VALID,0,VALID,94.3245,VALID,0,VALID,18.6875,VALID,352,VALID,0.530859,
2009-10-10, 03:46:05,VALID,917.979,VALID,0,VALID,93.9891,VALID,0,VALID,18.7265,VALID,352,VALID,0.554688,
2009-10-10, 03:47:05,VALID,917.949,VALID,0,VALID,94.3245,VALID,0,VALID,18.746,VALID,352,VALID,0.162109,